DECAYED

FENGYUN 1C DEB, 30444 (Decayed)

Orbit data source: Space-Track

FENGYUN 1C DEB, 30444 was space debris in SSO originally from a launch on Mon, 10 May 1999 UTC launched from the Taiyaun Space Center, China (TSC). Fengyun 1C debris stems from the Chinese weather satellite Fengyun-1C, which was intentionally destroyed by a Chinese anti-satellite missile in 2007. This event dramatically increased the amount of space debris, with thousands of trackable fragments posing hazards to satellites and human spaceflight. The Fengyun 1C debris cloud has become a focal point in discussions about space sustainability and the need for international regulations to prevent the creation of new debris.

Not visible in the next 10 days
Identifier
30444, 1999-025AFF
Orbit
Decayed
Country
Flag of CNCN / PRC
Related business
Manufacturer
Unknown
Mission
Decayed spacecraft
Bus & Motor
Unknown
Mass
Unknown
Launch date (UTC)
1999-05-10 (27 years ago)
Launch vehicle
Unknown
Launch site
Taiyaun Space Center, China (TSC)
Object type
Payload
Rocket body
Debris
Shape & HBR
Unknown shape, 0.1 m
Radar Cross Section
Medium (>0.1 m² and <1 m²)

Expand to show TLE details & history
Last TLE update: 7 months ago

TLE from 7 months ago
0 FENGYUN 1C DEB
1 30444U 99025AFF 25314.03590663  .05579049  00000-0  28188-1 0  9994
2 30444  99.1943 348.2867 0015808 272.0302 152.3182 15.77533294972273
Epoch: 2025-11-10T00:51Z
TLE epoch observation values (Epoch: 2025-11-10T00:51:42.332Z)
Latitude
63.03394°
Longitude
-92.52482°
Altitude
357.654 km
Speed
7.695 km/s
True Right ascension
21h 59m 22s
True Declination
62° 53' 11"
Sunlit
Object was in full shadow at epoch
Visualization orbit readout
Latitude
Unknown
Longitude
Unknown
Altitude
Unknown
Speed
Unknown
Apparent Right ascension
Unknown
Apparent Declination
Unknown
Sunlit
N/A
Visualization observer readout
Local Sidereal Time
22:36:36
Azimuth
Unknown
Elevation
Unknown
Doppler factor
Unknown
Orbital elements
Apogee altitude
345.02 km
Perigee altitude
323.798 km
Semi-major axis
6,712.546 km
Eccentricity
0.00158
Inclination
99.1943°
RAAN
348.2867°
Arg. of periapsis
272.0302°
True anomaly
152.40221°
Mean anomaly
152.3182°
Eccentric anomaly
152.36022°
Mean motion
3.9465 °/min
Orbital period
91.22 mins
BSTAR
0.028188
Loading maneuver chart data...
Computing Atmospheric mass density...

Documentation

Showing up to 5 results
|